Starlink 35868

operational
NORAD ID: 66579 Int'l Des: 2025-268 Owner: SPXS Country: US Constellation: starlink
LEOCIRCULAR

Über Starlink 35868

Beschreibung wird geladen...

Live-Position

3D-Globus wird geladen...

Nächste Überflüge

Höhenverlauf

Altitude vs Time

uPlot chart will show altitude changes over time

Zweizeiliger Elementsatz

1 66579U 25268Y 26063.28154028 .00031824 00000-0 11597-2 0 9996
2 66579 43.0021 17.5147 0002119 247.2651 112.7976 15.27616046 17133
Epoch: 4. März 2026 • Age: 16 hours

Aktueller Status

Höhe 483.7 km
Geschwindigkeit 7.62 km/s
Subsatellitenpunkt -4.45°S, 34.05°W
Startdatum 21. Nov. 2025
Alter 0.2 years
Typ internet

Technische Details

Klassifizierung Payload
Masse 575.00 kg
Trockenmasse 530.00 kg
Gesamtmasse 575.00 kg
Länge 0.30 m
Durchmesser 4.10 m
Spannweite 29.00 m
Form Box + pan
Hersteller SPXS
Bus-Typ Starlink V2MO
Phasenstatus In Orbit
Besitzer/Staat SPXS/US

Große Konstellationen

Loading constellations...